YBHMYBTL

Guest
Details From YBHM - Hamilton I.
To YBTL - Townsville Intl
Flight Number -
Tags generated
Created
Modified
Stats Distance 140 nm / 260 km
Max Altitude 10,500 ft / 3,200 m
Waypoints 3
Social Downloads 2
Likes 0
Share VATSIM

Download

Looking for another format? Having issues loading an existing format? Contact us
Advertisement - Login to hide

Notes

Basic altitude profile: - Ascent Rate: 3000ft/min - Ascent Speed: 350kts - Cruise Altitude: 35000ft - Cruise Speed: 350kts - Descent Rate: 2500ft/min - Descent Speed: 250kts Options: - Use NATs: yes - Use PACOTS: yes - Use low airways: yes - Use high airways: yes

Route

YBHM WALTA YBTL

ID Type Via Altitude Latitude Longitude Leg Dist Tot Dist Heading (true) Name
O YBHM APT - 0 ft / 0 m -20.35748˚ 148.95164˚ - 0 nm - Hamilton I.
WALTA FIX - 10,500 ft / 3,200 m -19.69056˚ 147.59056˚ 86 nm 86 nm 297° / 298° -
O YBTL APT - 0 ft / 0 m -19.25135˚ 146.76502˚ 53 nm 140 nm 299° / 300° Townsville Intl

Altitude Profile

Advertisement - Login to hide

YBHM

Details ICAO YBHM (HTI)
Name Hamilton I.
Region Australia
Timezone Australia/Lindeman (UTC+10.0)
Stats Elevation 14 ft / 4 m (AMSL)
Location -20.357481° 148.951639°
Runways 1
Magnetic Variation 8.150° E

METAR

YBHM 230900Z AUTO 15021KT 9999 // NCD 21/17 Q1019

Decode

TAF

TAF AMD YBHM 230708Z 2307/2318 15020KT 9999 SCT030 FM230900 13018KT 9999 SCT027

Decode

Departure Runways

ID Width Length Bearing (true) Bearing (mag) Surface Threshold Offset Overrun Length
14 148 ft / 45 m 5,792 ft / 1,765 m 143.04° 134.89° Asphalt 0 ft / 0 m 0 ft / 0 m
32 148 ft / 45 m 5,792 ft / 1,765 m 323.03° 314.88° Asphalt 0 ft / 0 m 0 ft / 0 m

YBTL

Details ICAO YBTL (TSV)
Name Townsville Intl
Region Australia
Timezone Australia/Brisbane (UTC+10.0)
Stats Elevation 18 ft / 5 m (AMSL)
Location -19.251349° 146.765017°
Runways 2
Magnetic Variation 7.372° E

METAR

YBTL 230900Z AUTO 11010KT 9999 // ////// 21/15 Q1018

Decode

TAF

TAF YBTL 230516Z 2306/2406 06014KT CAVOK FM230900 13006KT CAVOK FM231500 19005KT 9999 FEW040 FM240000 12010KT 9999 SCT045 FM240300 07014KT 9999 SCT040

Decode

Destination Runways

ID Width Length Bearing (true) Bearing (mag) Surface Threshold Offset Overrun Length
01 148 ft / 45 m 8,035 ft / 2,449 m 24.00° 16.63° Asphalt 0 ft / 0 m 0 ft / 0 m
07 98 ft / 30 m 3,617 ft / 1,102 m 73.84° 66.47° Concrete 0 ft / 0 m 0 ft / 0 m
19 148 ft / 45 m 8,035 ft / 2,449 m 204.00° 196.63° Asphalt 0 ft / 0 m 0 ft / 0 m
25 98 ft / 30 m 3,617 ft / 1,102 m 253.84° 246.47° Concrete 0 ft / 0 m 0 ft / 0 m

Approach Navaids

Runway Type Ident Frequency Range Bearing (true) Bearing (mag) Slope Elevation
01 Localiser ITL 109.30 MHz 18 nm / 33 km 23.71° 16.33° - 13 ft / 4 m (AMSL)
01 Glidescope ITL 109.30 MHz 10 nm / 19 km 24.02° 16.65° 3.00° 18 ft / 5 m (AMSL)
01 DME ITL 109.30 MHz 18 nm / 33 km - - - 18 ft / 5 m (AMSL)

Popular Alternatives